Regional Weather Roundup
Issued by NWS

Home | Current Version | Previous Version | Text Only | Print | Product List | Glossary On
Versions: 1 2 3 4 5 6 7 8 9 10 11 12 13 14 15 16 17 18 19 20 21 22 23 24 25 26 27 28 29 30 31 32 33 34 35 36 37 38 39 40 41 42 43 44 45 46 47 48 49 50
324
ASUS43 KMKX 271021
RWRWI

WISCONSIN REGIONAL WEATHER ROUNDUP
NATIONAL WEATHER SERVICE MILWAUKEE/SULLIVAN WI
500 AM CDT TUE SEP 27 2016

NOTE: "FAIR" INDICATES FEW OR NO CLOUDS BELOW 12,000 FEET WITH NO
SIGNIFICANT WEATHER AND/OR OBSTRUCTIONS TO VISIBILITY.

WIZ001-002-006>008-014>016-023>028-271100-
NORTHWEST WISCONSIN

CITY           SKY/WX    TMP DP  RH WIND       PRES   REMARKS
SUPERIOR ARPT  CLOUDY    52  45  77 W12G20    29.69S
ASHLAND        LGT RAIN  50  47  89 W13G23    29.65R
HAYWARD        CLOUDY    51  42  71 VRB6      29.70R
SIREN          CLOUDY    50  42  72 W10       29.75S
CUMBERLAND     CLOUDY    48  41  76 W17       29.74S
RICE LAKE      CLOUDY    51  41  70 W8G17     29.75S
CHETEK         NOT AVBL
LADYSMITH      CLOUDY    52  43  71 W16       29.72S
EAU CLAIRE     CLOUDY    52  42  69 W13G20    29.75F
MENOMONIE      PTCLDY    50  41  69 W13       29.78S
NEW RICHMOND   CLEAR     47  40  76 W9        29.80R
OSCEOLA        PTCLDY    49  41  74 W12       29.82S
$$

WIZ003>005-009-010-017-018-271100-
NORTH CENTRAL WISCONSIN

CITY           SKY/WX    TMP DP  RH WIND       PRES   REMARKS
MANITOWISH WTR NOT AVBL
ARBOR VITAE    DRIZZLE   49  47  92 W9        29.62S
WOODRUFF       DRIZZLE   49  47  92 W9        29.62S
RHINELANDER    LGT RAIN  50  46  86 W12G21    29.64S
EAGLE RIVER    LGT RAIN  47  46  97 W14       29.60S
LAND O LAKES   LGT RAIN  48  46  95 W10G17    29.60S
PHILLIPS       DRIZZLE   49  44  84 NW6       29.67R
TOMAHAWK       DRIZZLE   48  43  83 W7        29.67S
MEDFORD        CLOUDY    49  42  75 W9        29.69S
MERRILL        CLOUDY    51  44  77 W10       29.68S
$$

WIZ029-030-035-036-043>047-271100-
CENTRAL WISCONSIN

CITY           SKY/WX    TMP DP  RH WIND       PRES   REMARKS
WAUSAU         CLOUDY    51  41  68 W15G23    29.67F
MOSINEE        CLOUDY    50  43  76 W14       29.70S
MARSHFIELD     CLOUDY    51  41  68 W10       29.71F
STEVENS POINT  CLOUDY    48  40  73 W10G21    29.71S
WAUPACA        CLOUDY    54  41  61 W13       29.71F
WAUTOMA        MOCLDY    50  40  68 W8        29.74F
WISC RAPIDS    CLOUDY    50  42  74 W9        29.74F
CAMP DOUGLAS   CLEAR     50  40  68 W9        29.76S
$$

WIZ011>013-019>022-031-037>040-048>050-271100-
NORTHEAST WISCONSIN

CITY           SKY/WX    TMP DP  RH WIND       PRES   REMARKS
ANTIGO         DRIZZLE   48  44  87 W12       29.65S
SHAWANO        CLOUDY    55  43  63 W9G16     29.66S
OCONTO         NOT AVBL
STURGEON BAY   CLOUDY    55  43  63 W14G22    29.64S
GREEN BAY      CLOUDY    54  43  66 SW13G18   29.67F
MANITOWOC      CLOUDY    54  41  61 MISG      29.69F
APPLETON       CLOUDY    50  37  62 W10       29.69S
CLINTONVILLE   NOT AVBL
OSHKOSH        CLOUDY    52  39  61 W8        29.71F
$$

WIZ032>034-041-042-053>061-271100-
SOUTHWEST WISCONSIN

CITY           SKY/WX    TMP DP  RH WIND       PRES   REMARKS
LA CROSSE      CLEAR     55  38  52 W14       29.80F
SPARTA         CLEAR     48  40  73 W6        29.79S
VIROQUA        CLEAR     48  37  65 W9        29.81S
BOSCOBEL       CLEAR     49  39  68 SW6       29.85S
PRAIRIE DU CHI CLEAR     51  35  54 W10       29.86R
PLATTEVILLE    CLEAR     48  39  71 W7        29.86S
$$

WIZ056-057-062-063-064-067-068-271100-
SOUTH CENTRAL WISCONSIN

CITY           SKY/WX    TMP DP  RH WIND       PRES   REMARKS
REEDSBURG      NOT AVBL
BARABOO/DELLS  CLEAR     50  37  59 W12G18    29.77F
LONE ROCK      CLEAR     49  39  68 W8        29.82F
MINERAL POINT  CLEAR     46  37  71 W8        29.84F
MADISON        CLEAR     52  37  56 VRB3      29.79S
MIDDLETON      NOT AVBL
WATERTOWN      CLEAR     49  40  70 SW7       29.78S
MONROE         CLEAR     50  37  62 W14       29.83F
JANESVILLE     CLEAR     50  37  62 SW9       29.82F
$$

WIZ051-052-058>065-066-070>072-271100-
SOUTHEAST WISCONSIN

CITY           SKY/WX    TMP DP  RH WIND       PRES   REMARKS
MILWAUKEE      CLEAR     53  38  56 SW10      29.78S
WAUKESHA       CLEAR     46  36  66 SW10      29.79S
MILWAUKEE/TIMM CLEAR     50  36  57 SW9       29.78S
RACINE         CLEAR     51  38  60 SW8       29.80F
BURLINGTON     CLEAR     49  37  62 W7        29.80S
KENOSHA        CLEAR     50  39  66 W13       29.80F
FOND DU LAC    CLOUDY    50  39  66 SW8       29.74S
SHEBOYGAN      PTCLDY    50  40  68 W9        29.72F
WEST BEND      CLEAR     50  37  62 W10       29.75F
JUNEAU         CLEAR     47  39  72 SW10      29.77S
$$

LSZ147-162-271100-
LAKE SUPERIOR

STATION/POSITION TIME  TEMP    WIND        PRES    WAVE
                       AIR SEA DIR/SP/G            HT/PER
                 (UTC) (F)     (DEG/KT/KT) (MB)    (FT/S)
W MID LAKE BUOY  0950   50 46  270/ 17/ 21  999.5F   4/ 6
DEVILS ISLAND    1000   53     280/ 20/ 25 1002.2S
SAXON HARBOR     0900   51     240/  8/ 13 1002.7
$$

LMZ867-665-643>646-271100-
LAKE MICHIGAN

STATION/POSITION TIME  TEMP    WIND        PRES    WAVE
                       AIR SEA DIR/SP/G            HT/PER
                 (UTC) (F)     (DEG/KT/KT) (MB)    (FT/S)
CHAMBERS ISLAND  0900   56     220/ 12/ 19 1002.4F
N MID LAKE BUOY  0950   58 66  250/ 25/ 31 1000.5F   6/ 6
NORTHPORT PIER   0900   56     260/  8/ 17 1002.4F
KEWAUNEE LAKESHO 0900   55     240/  6/ 12 1004.3F
SHEBOYGAN LAKESH 1000   52     240/ 12/ 14 1006.0F
PORT WASHINGTON  0900   53     250/  7/  9 1008.5
ATWATER BUOY     1000   55 58  240/ 14/ 16 1008.1S
MILWAUKEE LAKESH 0910   55     250/ 11/ 15   N/A
S MID LAKE BUOY  0950   62 70  250/ 23/ 27 1007.4F   5/ 6
KENOSHA   LAKESH 1000   54     250/ 10/ 16 1009.1S
$$

TC  - TEMPERATURE IN CELSIUS
VSB - VISIBILITY IN STATUTE MILES
WCI - WIND CHILL INDEX
HX  - HEAT INDEX





USA.gov is the U.S. government's official web portal to all federal, state and local government web resources and services.